STARLINK-31651 (59860 NORAD) Tracking and Keplerian Element Data

This shows tracking and keplerian element data for the satellite.

Feedback or suggestion? Click here.




ElementValue
Catalog59860
NameSTARLINK-31651
Epoch Orbit290
Epoch Day160.16667824
Epoch Year2024
RAAN328.0404
Inclination43.0024
Eccentricity0.0001316
Argument of Perigee282.9141
Mean Anonmoly182.0196
Mean Motion15.73738814
Decay Rate-0.01773493
L11 59860U 24098C 24160.16667824 -.01773493 00000+0 -13914-1 0 9998
L22 59860 43.0024 328.0404 0001316 282.9141 182.0196 15.73738814 2907



Live tracking and technical data element details for STARLINK-31651 (NORAD 59860). STARLINK-31651 can be tracked NOW for your location showing map with azimuth and elevation plus other details from your city location.







IsCatalogInMostPopularTable: catalog: 59860, numindb: 9
Update: records affected: 1



GetName: 59860 STARLINK-31651

Hit Count: updated at: Thu, 25 Jul 2024 01:37:34 GMT